Weather History for Western Head, NS

Change the Weather History Date:

Tuesday, October 2, 2012

  Actual Average Record
Temperature  
Mean Temperature 62 °F -  
Max Temperature 73 °F - - ()
Min Temperature 51 °F - - ()
Degree Days  
Heating Degree Days 3    
Growing Degree Days 12 (Base 50)    
Moisture  
Dew Point 54 °F    
Average Humidity 82    
Maximum Humidity 99    
Minimum Humidity 46    
Precipitation  
Precipitation 0.00 in - - ()
Sea Level Pressure  
Sea Level Pressure 29.93 in    
Wind  
Wind Speed 8 mph ()    
Max Wind Speed 14 mph    
Max Gust Speed 22 mph    
T = Trace of Precipitation, MM = Missing Value Source: Averaged Metar Reports

Daily Weather History Graph

Daily Weather History Graph

Search for Another Location

Airport:

Trip Planner

Search our weather history database for the weather conditions in past years. The results will help you decide how hot, cold, wet, or windy it might be!

Date:

Astronomy

Oct. 02, 2012 Rise Set
Actual Time 7:18 AM ADT 6:56 PM ADT
Civil Twilight 6:49 AM ADT 7:25 PM ADT
Nautical Twilight 6:15 AM ADT 7:59 PM ADT
Astronomical Twilight 5:41 AM ADT 8:32 PM ADT
Moon 7:59 PM ADT (10/2) 9:47 AM ADT (10/2)
Length of Visible Light 12h 36m
Length of Day
11h 38m
Waning Gibbous, 94% of the Moon is Illuminated
Oct 2
Waning Gibbous
Oct 8
Last Quarter
Oct 15
New
Oct 22
First Quarter
Oct 29
Full

Hourly Weather History & Observations

Time (ADT) Temp. Dew Point Humidity Pressure Visibility Wind Dir Wind Speed Gust Speed Precip Events Conditions
12:00 AM 53 °F 52 °F 97% 29.83 in - WSW 8.1 mph - -  
12:00 AM 53.4 °F 52.3 °F 96% 29.83 in - WSW 8.1 mph - N/A   Unknown
1:00 AM 53.8 °F 53.1 °F 97% 29.85 in - SW 9.2 mph - N/A   Unknown
2:00 AM 53.1 °F 52.5 °F 98% 29.86 in - WSW 11.5 mph - N/A   Unknown
3:00 AM 53 °F 53 °F 98% 29.86 in - WSW 10.4 mph - -  
3:00 AM 53.1 °F 52.5 °F 98% 29.86 in - WSW 10.4 mph - N/A   Unknown
4:00 AM 52.3 °F 51.8 °F 98% 29.86 in - SW 8.1 mph - N/A   Unknown
5:00 AM 52.3 °F 51.8 °F 98% 29.88 in - WSW 9.2 mph - N/A   Unknown
6:00 AM 51 °F 51 °F 98% 29.88 in - WSW 6.9 mph - -  
6:00 AM 51.1 °F 50.5 °F 98% 29.88 in - WSW 6.9 mph - N/A   Unknown
8:00 AM 52.9 °F 52.5 °F 99% 29.92 in - WSW 8.1 mph - N/A   Unknown
9:00 AM 56 °F 56 °F 99% 29.93 in - WSW 8.1 mph - -  
9:00 AM 56.3 °F 55.8 °F 98% 29.93 in - WSW 8.1 mph - N/A   Unknown
10:00 AM 60.1 °F 56.5 °F 88% 29.95 in - WSW 11.5 mph - N/A   Unknown
11:00 AM 65.1 °F 57.4 °F 76% 29.96 in - West 10.4 mph - N/A   Unknown
12:00 PM 67 °F 57 °F 63% 29.96 in - West 13.8 mph - -  
12:00 PM 67.3 °F 57.4 °F 70% 29.96 in - West 13.8 mph 20.7 mph N/A   Unknown
1:00 PM 70.3 °F 58.3 °F 66% 29.95 in - WSW 12.7 mph 18.4 mph N/A   Unknown
2:00 PM 72.5 °F 57.0 °F 58% 29.94 in - West 11.5 mph 21.9 mph N/A   Unknown
3:00 PM 73 °F 57 °F 46% 29.94 in - West 13.8 mph - -  
3:00 PM 72.7 °F 56.7 °F 57% 29.94 in - West 13.8 mph 21.9 mph N/A   Unknown
4:00 PM 73.2 °F 56.1 °F 55% 29.94 in - WNW 11.5 mph 18.4 mph N/A   Unknown
5:00 PM 72.3 °F 54.5 °F 53% 29.95 in - West 11.5 mph 18.4 mph N/A   Unknown
6:00 PM 66 °F 56 °F 61% 29.98 in - West 5.8 mph - -  
6:00 PM 66.4 °F 55.8 °F 69% 29.98 in - West 5.8 mph - N/A   Unknown
7:00 PM 62.1 °F 54.7 °F 77% 29.99 in - WSW 9.2 mph - N/A   Unknown
8:00 PM 59.7 °F 54.1 °F 82% 30.00 in - WSW 6.9 mph - N/A   Unknown
9:00 PM 58 °F 53 °F 80% 30.02 in - WSW 8.1 mph - -  
9:00 PM 58.3 °F 53.4 °F 84% 30.02 in - WSW 8.1 mph - N/A   Unknown
10:00 PM 57.0 °F 53.8 °F 89% 30.01 in - WSW 6.9 mph - N/A   Unknown
11:00 PM 57.2 °F 53.6 °F 88% 30.02 in - WSW 4.6 mph - N/A   Unknown